Theta_e
285 286 285 286 283 281 281 281 279 277 278 278 276 276 279 278 274 274 280 280 276 278 280 282 281 281 279 276 275 276 277 276 275 275 275 275 275 274 274 273 273 273 273 273 273 273 272 272 271 271 271 270 270 270 270 270 270 270 270 269 268 268 268 268 268 269 269 270 270 269 269 268 268 268 268 269 269 269 269 269 270 271 271 272 272 273 274
283 284 284 284 282 282 282 281 280 279 278 277 278 278 279 278 277 279 279 279 278 280 281 283 281 280 277 276 277 276 276 275 276 274 274 274 274 274 273 273 273 273 273 273 272 272 272 271 270 270 270 269 269 269 269 269 269 269 269 268 267 267 266 267 269 269 269 269 269 269 268 268 268 268 268 268 268 268 268 269 269 270 271 271 272 273 274
280 283 283 282 281 280 279 281 281 279 279 279 278 278 278 278 277 278 278 277 277 281 284 283 282 278 277 277 276 276 275 275 275 274 274 274 273 273 272 272 273 273 272 272 272 271 271 270 270 269 269 269 269 268 268 268 268 268 268 266 266 266 266 267 268 268 268 268 268 268 267 267 267 266 267 267 267 267 267 268 268 269 270 271 272 273 274
278 281 280 280 280 279 278 277 278 278 278 276 278 276 278 277 275 277 277 275 275 280 280 281 279 276 276 276 276 275 275 275 275 274 274 273 272 272 272 272 272 272 272 271 271 270 270 270 269 269 268 268 268 267 267 267 267 267 266 265 265 265 266 267 267 268 268 267 267 267 266 266 266 266 266 266 266 266 267 267 268 269 269 269 270 271 272
276 277 277 275 276 275 273 275 278 279 279 280 280 280 280 279 279 276 274 275 280 281 278 277 275 276 276 276 276 275 275 275 275 275 274 273 272 272 272 272 272 271 271 271 270 270 270 269 269 269 268 267 267 267 266 267 266 265 265 265 265 265 266 266 266 267 267 267 266 265 265 265 265 265 265 266 266 266 266 267 268 267 268 269 270 272 273
273 272 275 276 273 269 275 281 284 281 279 279 278 278 279 280 280 279 280 281 282 280 278 278 275 275 276 276 276 277 276 275 275 274 273 272 272 272 272 272 271 271 271 270 270 270 269 269 269 269 268 267 267 267 266 266 265 264 264 264 264 265 265 266 266 266 266 265 265 265 265 264 264 264 264 264 265 266 266 266 266 267 268 268 270 271 272
271 273 274 271 268 273 280 277 280 281 282 281 280 280 281 281 282 281 280 281 281 282 280 278 277 276 276 276 276 276 276 276 276 274 272 272 272 272 271 271 271 270 270 270 269 269 268 268 268 268 267 267 266 265 265 264 264 263 263 263 263 264 264 265 265 265 264 264 264 264 264 264 264 263 264 264 265 265 266 266 266 266 267 268 269 270 271
273 269 271 267 272 280 281 278 278 280 279 279 279 278 280 281 281 281 280 281 282 282 278 276 276 276 276 276 276 276 276 276 275 273 272 272 272 271 271 270 270 269 269 269 268 268 268 268 267 267 266 266 264 263 264 263 263 262 262 262 263 264 264 263 263 263 263 262 262 262 262 263 263 263 263 264 264 265 266 266 267 268 268 270 270 270 271
271 273 270 274 280 278 281 282 275 277 276 276 276 273 279 281 282 282 280 281 281 280 275 276 276 276 275 274 274 274 274 274 274 274 273 272 272 271 271 271 270 269 269 268 268 268 267 267 266 265 265 264 263 262 262 262 262 262 262 262 262 262 262 262 262 262 262 261 261 261 261 262 262 262 263 264 264 265 265 266 266 267 268 269 271 272 273
277 272 272 272 273 271 276 277 279 281 282 281 280 277 276 280 281 282 281 280 280 276 275 275 275 276 275 272 273 274 274 274 273 273 273 272 272 271 270 270 269 268 268 268 268 267 266 265 265 265 264 263 262 261 261 261 261 261 261 261 262 262 261 261 261 261 261 261 260 260 261 261 262 263 264 264 265 266 265 265 266 267 268 268 270 271 271
275 272 270 271 270 275 276 276 278 279 280 280 278 273 272 278 280 281 281 280 278 275 275 275 276 274 270 271 273 274 274 273 273 272 272 271 270 270 269 268 268 267 267 267 266 266 264 263 264 263 262 262 261 260 260 260 260 260 260 260 260 260 260 260 260 260 260 260 260 260 260 261 263 264 264 264 265 266 266 266 267 268 268 268 269 271 272
276 273 271 270 275 275 275 275 277 278 280 281 278 270 271 278 278 279 279 279 277 276 276 276 276 274 270 273 274 275 274 274 272 272 271 270 269 269 268 268 268 267 266 265 264 264 263 263 263 262 261 261 259 259 259 259 259 259 259 260 260 260 260 260 260 260 260 260 260 260 261 262 264 265 265 265 266 266 267 267 267 268 269 269 269 270 273
275 276 272 275 275 281 276 276 277 279 281 278 269 271 277 278 277 277 278 278 278 277 276 277 274 276 276 276 275 275 273 273 272 271 271 270 269 268 267 267 268 265 265 264 263 263 263 263 262 261 260 259 258 258 259 258 258 259 259 259 259 259 259 259 258 259 260 261 261 262 264 265 265 265 266 267 267 267 267 268 268 268 268 269 270 271 273
273 274 272 272 275 280 277 278 278 281 279 269 271 279 278 278 278 277 279 278 278 278 277 277 277 276 275 275 275 273 273 273 272 271 270 268 267 268 268 268 266 264 264 263 263 262 262 262 261 260 259 258 258 258 257 257 258 259 259 259 258 258 258 258 258 259 260 261 262 263 265 265 265 265 266 267 268 269 269 268 268 268 269 270 270 271 273
274 274 270 269 267 278 279 278 277 281 277 278 279 277 278 279 278 278 278 278 278 278 277 277 276 275 274 274 274 273 272 271 270 269 268 267 266 265 265 264 265 264 262 262 262 262 262 261 260 260 258 257 257 257 256 257 258 258 258 258 257 257 257 257 258 259 260 261 263 264 265 265 264 264 265 266 267 269 270 269 269 269 270 270 271 272 275
268 272 268 269 277 279 280 279 275 278 282 280 278 279 277 278 278 278 278 278 278 279 278 277 276 276 275 274 273 272 271 270 269 268 268 267 266 265 264 264 263 261 261 261 261 261 261 260 259 259 257 256 256 256 256 258 258 257 257 256 256 256 256 257 258 260 261 262 263 264 264 264 264 264 264 265 266 268 270 271 271 271 271 272 273 274 276
274 274 278 280 277 279 281 282 282 282 282 279 280 280 280 278 278 278 279 278 278 279 278 277 276 275 276 275 274 273 271 270 269 267 266 266 265 264 263 263 262 261 261 259 259 259 259 259 258 258 257 256 255 255 257 257 257 256 255 255 255 255 256 257 258 260 261 262 263 263 263 263 263 263 263 264 265 267 269 272 273 273 273 275 276 278 280
283 283 283 280 278 280 280 282 281 281 280 280 280 280 279 280 280 280 279 279 279 278 278 276 275 276 276 274 272 272 271 269 268 267 265 264 264 263 262 261 262 260 259 257 257 257 257 258 258 258 257 256 254 255 257 256 256 255 254 254 254 255 256 257 259 260 261 262 262 262 263 263 263 263 263 263 264 266 268 270 271 272 274 277 277 279 280
279 276 284 280 279 280 280 281 280 280 281 280 280 280 280 280 280 280 280 280 279 279 277 277 276 276 274 274 272 271 270 269 267 266 265 264 263 262 260 261 259 258 256 256 256 255 255 257 257 257 256 256 256 256 255 256 255 254 253 253 254 255 256 257 259 260 261 261 261 261 262 262 262 262 263 263 264 265 267 267 268 269 272 275 279 281 281
280 282 279 281 281 281 281 281 280 279 280 281 281 281 281 281 281 281 280 280 278 278 277 277 276 275 273 273 271 270 269 268 266 265 264 263 263 262 261 260 258 256 256 255 255 255 255 256 257 256 256 255 255 255 255 255 254 253 253 253 253 254 256 258 259 260 260 261 261 260 261 261 261 261 261 262 263 264 265 266 266 268 270 273 275 277 280
281 283 280 280 280 280 280 280 281 282 281 281 280 280 280 279 279 279 279 280 278 277 277 276 275 273 272 273 271 270 268 266 265 264 264 262 261 260 260 258 257 256 255 254 254 254 255 256 256 255 255 255 255 255 255 254 253 252 252 253 253 254 256 257 258 260 260 260 260 260 260 260 261 261 261 262 262 264 266 267 268 268 269 271 274 275 277
278 279 281 279 275 275 279 279 281 281 282 281 279 279 279 279 278 278 277 275 275 277 277 275 274 273 272 271 269 268 267 266 265 263 262 260 259 258 259 258 256 255 254 254 253 254 255 255 255 254 254 254 254 255 254 253 253 252 252 252 253 254 256 257 258 259 259 259 259 259 259 259 259 259 263 267 265 264 264 269 272 273 273 271 273 274 274
279 283 283 283 284 282 281 281 282 282 281 280 278 278 278 279 279 278 276 273 272 273 273 274 274 272 271 269 268 266 265 264 264 263 261 259 258 258 257 255 254 254 254 254 253 253 254 255 254 253 253 253 253 254 254 253 253 252 252 252 253 254 255 256 258 259 259 259 259 259 259 258 258 258 258 260 265 268 269 269 270 272 272 274 276 276 274
282 283 283 284 283 282 280 282 282 282 281 280 279 279 279 279 277 277 276 275 274 273 271 270 271 271 270 268 267 265 263 262 261 260 259 259 258 258 256 255 254 253 253 253 253 253 254 254 253 253 252 253 253 253 253 252 252 251 251 252 252 253 255 257 258 259 259 258 258 258 258 258 258 257 257 257 258 264 267 268 269 270 271 272 274 274 275
283 282 283 284 283 283 282 282 282 282 281 281 280 279 278 278 277 277 276 275 275 273 271 270 268 268 268 266 266 264 262 261 260 260 259 259 259 257 255 253 253 253 253 253 253 253 253 252 252 252 251 252 252 252 252 252 251 251 251 252 252 253 255 257 258 258 258 257 257 257 257 257 257 257 256 256 255 256 258 265 267 268 269 270 271 273 273
281 281 282 282 283 281 280 281 281 281 280 281 280 279 279 278 277 275 275 274 273 273 272 270 267 266 266 265 263 262 261 260 261 260 257 257 256 255 253 252 253 253 253 252 252 252 251 251 251 251 251 251 252 251 251 251 251 250 251 252 252 253 255 257 257 257 257 257 257 257 257 257 256 256 256 256 256 256 255 256 257 261 265 267 269 271 271
281 282 281 279 279 278 279 280 279 280 280 281 280 279 278 277 275 274 273 271 271 271 270 269 268 265 264 263 262 261 260 260 260 257 257 256 255 254 253 253 253 252 252 251 251 252 252 251 250 250 250 251 251 251 251 250 250 250 251 252 252 254 256 257 256 256 256 257 257 257 257 256 256 256 256 256 256 256 255 255 255 255 255 257 263 269 266
281 281 284 279 278 278 278 282 282 281 280 280 279 277 275 273 271 269 268 268 267 265 265 265 264 263 262 261 260 260 260 258 256 256 256 255 254 253 252 252 252 251 251 251 251 251 251 250 249 249 250 251 251 250 250 250 250 250 251 251 252 253 254 256 256 255 255 256 256 256 256 256 256 256 256 256 255 255 255 255 255 255 255 256 257 264 268
280 281 284 283 282 281 280 278 278 278 276 275 275 273 272 271 270 270 269 269 267 265 264 262 262 263 262 260 260 259 258 257 256 255 255 254 253 252 252 251 251 251 251 252 250 249 249 249 249 249 249 250 250 249 249 249 249 250 250 251 251 252 254 255 255 255 255 255 256 257 258 256 256 255 255 255 255 255 255 254 254 254 254 255 256 258 262
280 282 281 280 280 278 276 276 277 275 273 272 271 271 272 272 269 269 268 267 264 265 264 262 261 260 260 259 259 258 257 256 256 255 254 253 252 251 251 251 250 251 250 250 250 250 249 247 246 246 248 249 249 249 249 249 249 249 249 250 250 252 253 256 255 255 254 254 255 257 256 255 255 255 255 255 255 254 254 254 254 254 253 254 256 256 257
280 280 279 278 277 277 278 276 275 274 272 271 271 270 270 271 271 269 267 265 264 264 262 261 261 259 259 259 258 257 256 255 255 254 253 252 251 251 250 250 248 247 247 248 249 247 245 245 245 246 248 249 248 248 249 249 249 249 250 250 250 254 256 257 257 255 253 254 254 255 255 255 254 254 254 254 254 254 253 253 253 253 253 253 254 254 257
280 278 276 276 276 277 277 276 274 272 271 271 270 270 269 269 269 268 266 264 264 263 261 260 259 259 258 257 256 255 255 255 254 254 253 252 251 251 251 250 250 250 246 246 245 246 245 245 245 247 248 248 248 248 248 248 248 249 249 250 250 250 253 257 254 255 254 254 254 254 254 254 253 254 253 253 253 253 253 253 253 253 253 253 253 254 257
278 275 274 275 275 276 276 274 273 271 270 269 271 271 271 271 272 271 268 266 263 261 260 260 259 258 257 256 255 255 254 254 254 253 252 251 250 250 249 245 244 244 244 244 245 244 244 245 245 246 247 248 248 248 248 248 247 248 249 249 249 250 253 255 255 253 253 253 253 253 254 254 254 253 253 253 253 253 253 253 252 252 252 253 253 254 257
279 278 278 278 278 276 276 273 273 271 270 271 272 271 270 270 270 269 266 264 263 261 261 260 259 257 256 256 255 254 253 252 251 250 249 248 247 246 245 247 245 244 244 244 244 244 244 244 244 245 246 248 250 250 248 248 248 248 248 248 249 250 250 251 252 252 252 252 252 253 253 253 253 253 253 252 252 252 252 252 252 252 252 252 252 254 257
282 282 281 280 279 279 278 275 273 271 270 270 269 269 270 268 268 267 265 264 263 262 261 259 258 257 256 255 254 253 253 253 252 251 249 248 247 246 245 244 244 245 245 245 243 244 245 244 244 246 247 248 249 249 250 249 248 248 247 248 249 250 249 251 251 251 251 251 252 252 252 253 253 253 253 252 252 252 252 252 252 252 251 251 252 253 253
281 281 280 279 279 279 278 276 275 273 272 271 270 269 268 267 266 264 264 264 263 261 259 258 257 256 255 255 254 253 252 252 251 250 249 248 247 246 245 245 245 245 246 246 248 244 244 243 251 252 249 250 250 249 250 249 247 247 249 248 248 249 249 250 250 250 251 250 251 251 252 253 253 253 252 252 252 251 251 251 251 251 251 251 251 252 252
281 281 280 278 278 278 277 276 274 273 272 272 271 269 267 266 265 264 263 261 260 260 258 257 256 255 255 255 254 254 252 251 250 250 249 248 247 246 246 245 245 246 247 245 245 244 244 244 251 251 250 249 249 249 250 252 250 248 247 247 247 248 248 248 249 249 249 250 251 251 252 252 251 252 252 251 251 251 251 251 251 251 251 251 251 251 251
280 281 279 278 277 276 276 276 275 274 273 271 268 269 268 266 265 263 261 260 259 258 258 258 257 256 255 254 253 252 250 249 249 248 247 247 247 247 245 247 246 245 245 245 244 243 243 247 252 248 246 247 248 247 249 252 252 248 246 247 247 247 248 248 248 249 249 249 250 250 250 250 250 251 251 251 251 251 251 251 250 250 250 250 250 251 251
279 279 279 278 277 276 275 272 272 273 272 271 269 267 266 266 264 262 260 259 259 258 258 256 255 254 253 252 251 249 249 248 248 247 246 246 246 248 248 247 247 245 245 242 241 242 245 250 249 246 245 245 247 247 249 251 251 247 246 245 245 246 247 247 247 248 248 249 249 249 249 249 250 250 250 250 250 250 250 250 250 250 250 249 250 250 250
278 278 278 276 275 274 273 271 271 271 271 272 269 265 264 263 262 261 259 257 257 257 256 255 254 253 252 251 250 250 249 248 248 247 247 246 247 245 245 246 244 242 245 251 248 246 250 252 249 248 248 247 247 245 249 250 251 248 245 245 246 246 246 247 246 246 247 247 248 249 248 249 249 250 250 250 250 250 250 250 249 249 249 249 249 249 250
277 277 276 276 274 272 272 270 269 267 267 267 266 265 264 263 262 259 257 256 256 256 256 255 255 253 252 252 251 250 248 247 247 247 247 247 246 247 249 247 248 249 248 248 248 247 250 250 249 248 247 247 246 249 248 250 249 248 248 245 246 246 246 246 246 246 246 246 247 247 247 247 248 248 249 249 249 249 249 249 249 249 249 249 249 249 249
276 275 275 274 272 271 269 267 264 262 261 261 262 263 263 262 262 260 257 256 256 255 255 255 255 254 252 251 250 249 248 248 247 247 248 249 249 248 248 247 245 249 250 250 250 249 248 247 249 250 247 247 248 249 250 249 246 247 246 245 246 247 246 246 246 246 246 246 246 246 247 247 246 247 248 248 248 249 248 249 248 248 248 249 249 248 248
275 274 274 272 270 267 264 264 264 261 258 258 260 261 261 260 258 256 256 255 255 255 255 254 253 252 251 250 250 249 249 248 248 247 247 248 247 249 249 249 249 249 251 249 248 246 246 247 247 248 250 249 248 249 249 248 246 246 246 246 248 248 247 246 246 245 245 244 245 245 245 246 246 246 247 247 247 248 248 248 248 248 248 248 248 248 248
273 273 272 269 266 264 263 261 259 259 258 257 258 258 258 257 257 256 255 255 254 254 253 252 252 251 251 251 251 250 249 248 248 248 248 248 249 250 250 250 249 249 251 248 247 246 246 247 248 249 249 249 249 249 248 247 247 246 246 246 246 247 247 245 245 245 244 245 245 245 245 246 246 245 246 246 247 247 247 248 247 247 247 247 247 248 248
272 271 269 266 263 262 261 260 260 259 257 256 256 256 256 256 255 255 255 254 254 253 253 252 252 252 252 252 252 252 250 250 250 250 249 249 248 250 248 250 249 249 249 249 247 247 247 247 249 249 249 249 248 248 248 247 246 247 246 245 246 245 246 246 246 244 245 244 245 246 246 245 245 245 245 246 247 247 247 247 247 247 247 247 247 247 247
267 265 263 261 262 261 260 259 257 256 256 255 254 254 254 254 254 254 255 254 253 253 253 253 253 253 253 253 252 251 250 250 250 250 250 251 251 251 250 249 248 249 249 249 247 246 246 250 249 249 248 248 248 247 245 246 246 245 245 244 244 245 245 246 244 243 243 243 244 244 244 244 244 244 244 244 245 246 246 247 247 246 246 246 246 247 247
262 262 262 261 258 257 256 256 256 256 256 255 254 252 253 253 253 253 253 253 253 253 253 253 253 253 254 252 251 250 250 249 249 250 247 248 249 250 250 250 250 250 249 246 247 246 246 247 248 249 248 248 247 244 244 244 243 244 244 244 245 246 245 243 243 242 241 242 244 245 245 245 244 243 244 244 244 245 245 245 245 245 246 246 246 246 246
261 260 258 257 256 255 256 256 256 256 256 256 254 252 252 252 252 252 252 252 252 252 251 252 252 252 252 252 251 252 252 252 250 248 248 248 249 249 249 249 248 249 249 248 248 248 249 249 249 248 248 247 246 244 244 244 244 243 243 243 244 244 243 242 241 241 241 242 242 240 241 241 242 242 243 243 243 243 243 244 244 244 245 245 245 245 245
259 257 256 256 255 256 256 257 257 256 255 254 253 252 252 251 251 251 251 251 251 251 251 250 250 251 250 250 250 251 250 249 250 250 250 249 249 248 248 249 249 249 247 245 245 244 248 248 248 248 248 247 244 244 243 244 244 245 244 244 242 242 242 241 240 240 240 240 241 241 241 241 240 240 241 242 242 242 243 243 243 243 244 244 244 244 244
256 256 256 256 256 257 257 257 257 255 253 253 252 252 252 252 251 251 251 251 251 251 250 250 250 250 250 250 249 247 247 248 249 250 250 248 247 247 247 247 247 248 247 244 244 244 247 248 248 248 246 243 242 243 242 243 245 245 244 244 245 243 243 245 246 246 243 242 241 241 241 241 240 242 243 241 242 243 242 242 242 244 245 244 243 243 243
257 256 256 256 256 256 256 256 256 254 253 253 252 252 253 253 252 252 251 251 251 250 249 249 250 250 250 249 249 249 248 248 249 249 248 247 247 248 247 246 246 246 247 245 244 243 244 244 243 245 244 244 244 243 244 244 243 243 245 245 244 243 244 244 243 241 241 241 241 240 241 240 239 239 239 240 241 241 241 242 242 241 240 241 242 242 242
256 256 256 256 255 255 255 254 254 254 253 253 253 253 253 253 252 251 252 253 252 251 250 249 248 247 248 248 248 249 249 249 249 248 248 247 247 246 246 247 245 245 244 244 244 242 245 243 246 246 246 244 243 242 244 245 245 243 243 245 245 244 243 243 243 241 241 241 240 240 241 240 239 240 239 239 240 241 241 241 241 240 241 240 240 241 241
Wind_Speed
22 19 16 12 7 10 13 13 8 13 16 17 20 23 27 11 12 24 27 8 14 20 15 15 13 13 12 11 11 10 8 5 4 3 1 1 1 1 1 2 3 5 8 9 10 10 10 11 12 13 13 14 14 14 15 15 14 15 15 16 18 19 19 20 20 18 19 21 21 22 23 19 22 21 19 19 18 18 18 18 16 17 17 17 15 16 12
16 17 14 10 12 16 17 21 11 15 18 21 23 25 23 21 22 27 24 23 24 20 15 12 7 8 8 6 6 5 6 6 5 3 1 0 1 0 2 3 4 5 6 7 8 10 11 12 13 14 14 14 15 16 16 16 16 15 15 17 19 19 18 17 17 19 22 19 16 16 19 19 17 20 20 20 20 19 18 18 18 17 18 18 18 18 18
19 19 7 9 11 14 21 24 13 19 19 17 21 22 20 18 23 27 29 25 26 24 16 10 5 7 5 7 8 9 7 7 5 3 1 1 1 1 2 3 4 5 6 7 8 9 10 11 12 13 13 14 15 16 15 16 16 15 15 18 17 18 19 20 23 22 19 23 23 24 21 19 23 21 17 16 17 18 18 18 19 18 17 18 17 16 16
14 4 8 9 9 10 19 24 20 19 18 21 22 18 22 17 25 25 20 16 19 25 1 6 6 9 12 12 11 8 7 6 5 3 2 1 1 1 1 3 4 6 7 8 9 10 10 11 12 12 14 15 15 16 16 16 17 16 16 16 17 18 18 19 20 22 25 21 18 16 20 20 17 18 18 17 17 18 18 19 17 16 17 18 18 18 16
14 2 4 6 2 6 16 27 26 21 25 26 17 16 19 22 20 14 18 21 24 11 5 5 6 11 11 10 9 8 6 6 5 2 2 4 3 1 1 3 5 5 6 6 7 9 10 11 12 13 13 15 15 16 17 17 16 17 17 16 17 18 19 21 24 22 16 20 22 24 24 20 18 17 16 17 17 17 17 16 16 17 17 17 17 16 17
0 4 4 3 2 8 24 3 5 20 25 24 25 25 27 23 15 19 19 22 13 4 7 10 9 10 11 10 6 8 9 7 5 3 4 4 3 1 0 1 3 4 5 6 6 7 9 11 11 12 11 12 14 14 15 16 16 16 17 18 17 18 19 19 18 19 22 19 18 18 20 24 24 19 18 18 17 16 16 16 16 17 16 17 17 17 17
3 3 3 1 4 25 2 1 3 8 16 18 23 28 27 22 19 21 22 24 18 17 8 9 9 9 5 7 9 6 6 7 6 7 6 4 2 0 1 3 3 4 5 7 8 10 10 11 11 12 13 12 13 14 14 16 15 16 16 17 18 17 18 20 21 20 19 20 22 23 20 17 18 20 20 20 19 16 14 15 15 15 15 15 15 15 16
2 3 5 3 21 6 11 5 6 4 1 6 9 17 24 21 17 19 23 25 20 16 6 4 6 11 8 6 2 4 4 7 9 9 7 5 4 1 1 2 3 3 5 7 8 9 8 10 11 11 12 13 14 16 14 14 15 15 16 17 18 17 18 21 20 20 21 22 22 23 23 22 20 20 18 18 18 16 15 15 13 14 14 13 14 14 15
10 7 10 19 14 24 32 16 5 9 8 9 11 10 21 12 17 19 18 20 17 10 4 9 9 8 6 5 0 0 6 6 6 9 7 6 3 3 2 1 1 2 2 4 5 7 9 10 11 12 11 12 14 15 15 15 15 15 15 17 18 20 19 19 20 20 20 21 22 22 21 22 21 20 19 20 16 12 14 14 14 14 14 14 13 13 15
9 6 9 4 6 13 13 7 3 7 7 6 5 1 20 4 16 17 19 19 14 5 9 9 10 7 6 5 5 4 4 7 9 5 7 5 5 4 2 1 1 2 2 3 5 7 9 10 10 10 11 13 14 14 15 15 16 17 16 17 19 18 19 21 21 21 21 21 23 22 21 20 20 18 17 15 16 13 12 13 13 14 12 13 13 13 16
5 8 9 9 10 18 4 2 3 4 8 9 5 4 17 4 15 16 15 15 8 14 13 10 10 8 8 9 6 8 8 7 6 7 6 5 5 4 3 2 1 2 3 5 6 8 8 11 11 10 12 12 13 14 14 15 15 16 17 18 19 19 21 21 21 21 20 21 22 21 20 20 19 19 18 16 16 13 12 12 13 12 12 12 13 12 13
11 8 6 14 8 12 2 3 2 6 7 8 4 5 9 2 5 6 8 9 10 12 13 14 10 10 9 10 7 10 10 8 6 7 8 6 5 4 4 3 3 2 2 5 7 9 10 10 10 11 10 11 11 13 14 14 14 15 16 18 19 19 20 21 20 20 21 21 18 17 18 18 17 18 18 16 13 12 12 10 11 11 11 12 14 14 13
11 11 10 6 11 9 9 10 7 8 8 7 4 17 6 2 5 5 7 7 11 13 12 11 10 8 4 5 9 12 8 7 5 3 4 5 6 5 4 2 3 3 3 3 5 8 9 10 11 10 9 11 12 12 13 13 15 16 18 18 18 19 19 20 20 20 16 15 19 20 18 17 16 16 12 14 14 12 11 10 10 10 12 12 13 14 13
15 10 10 14 11 10 9 9 16 12 8 2 18 3 4 9 6 5 9 9 11 14 15 12 6 6 8 11 11 11 10 9 9 8 7 7 6 5 5 4 3 2 2 3 5 7 8 10 10 9 9 11 12 13 13 15 16 16 16 18 18 18 20 19 20 21 22 20 20 18 18 19 21 19 18 16 15 15 10 9 11 12 12 12 12 12 13
1 3 8 2 10 7 24 16 10 9 8 10 3 6 2 3 8 9 5 9 9 11 8 5 8 10 9 12 11 10 9 9 9 8 7 5 4 3 2 2 2 4 3 4 6 8 8 9 7 8 8 10 11 11 13 15 15 16 16 17 18 19 18 18 20 22 21 22 21 17 18 20 21 20 17 16 16 15 13 10 10 11 12 11 11 12 12
8 11 11 14 14 8 22 23 16 16 19 5 9 8 7 1 5 8 7 5 10 10 12 10 8 10 10 6 9 8 7 6 7 7 6 6 6 4 3 4 3 3 1 3 5 7 7 6 7 7 8 10 11 13 14 13 15 15 15 16 17 18 17 18 20 20 22 22 18 17 19 19 20 18 18 18 18 15 15 9 8 9 9 9 10 11 10
13 13 17 9 7 16 19 15 0 12 9 9 9 8 9 9 4 4 8 9 8 10 11 9 11 7 9 10 10 10 8 8 8 8 6 6 5 4 3 3 2 2 2 3 5 7 7 5 6 6 7 10 12 14 13 14 16 17 17 18 17 18 19 19 19 18 20 20 19 18 18 18 19 17 19 18 17 16 15 13 8 8 9 9 10 10 9
10 11 9 5 2 10 15 11 1 6 6 4 6 9 8 7 9 10 10 10 11 8 9 10 4 9 8 9 7 6 8 8 6 7 7 6 5 5 4 2 2 1 2 2 4 6 8 6 6 5 7 8 12 14 13 13 15 16 17 18 18 19 18 18 19 19 21 21 19 18 19 17 16 14 16 17 15 16 15 14 15 15 15 12 10 9 9
7 11 12 15 11 10 14 16 3 2 7 9 7 8 9 8 8 8 6 13 12 12 9 11 11 9 9 9 8 8 8 8 8 8 7 6 6 5 3 3 2 2 3 4 5 6 8 6 6 6 7 7 8 11 12 13 13 15 16 17 17 16 18 18 17 18 19 17 19 17 16 16 15 13 15 14 15 15 14 15 15 15 16 17 14 8 8
12 14 3 3 9 13 14 14 11 7 8 8 7 7 8 10 10 11 11 9 8 8 9 10 11 10 8 10 8 7 8 8 7 6 7 7 6 5 5 2 3 3 3 3 4 6 7 7 7 7 8 8 9 10 10 12 13 14 15 15 16 16 18 16 15 16 17 22 21 17 17 14 16 17 15 16 16 15 15 16 16 16 16 16 15 14 12
19 10 4 6 3 4 10 9 10 10 10 10 8 5 7 8 11 7 6 8 11 11 12 10 10 9 9 10 10 10 7 7 7 7 7 5 5 5 3 2 4 4 2 3 4 5 7 6 7 8 8 8 9 10 11 12 13 14 14 15 15 15 15 14 15 15 15 16 16 17 18 17 13 11 14 16 16 16 15 13 14 14 15 15 15 14 11
14 18 19 17 7 7 13 16 17 13 10 12 10 8 9 10 11 10 11 4 3 7 9 11 11 12 10 8 9 10 9 9 8 7 7 6 5 4 3 4 4 3 2 2 4 5 6 6 7 7 8 8 9 9 11 11 12 13 15 14 14 14 13 14 14 16 16 16 16 16 16 18 18 16 17 21 18 15 15 25 30 29 24 16 16 13 12
20 21 11 18 17 6 5 15 15 12 9 11 13 13 13 13 14 15 13 9 5 5 5 6 11 10 11 11 9 9 7 7 7 8 8 7 5 4 4 4 3 2 1 2 3 4 5 5 6 7 8 8 9 10 11 12 12 12 13 12 11 12 13 13 15 15 14 16 16 14 15 17 17 19 19 20 24 26 27 28 28 32 30 31 30 28 20
4 4 12 15 13 14 8 13 16 14 12 14 15 14 14 15 14 12 14 15 16 9 7 5 5 10 9 10 11 10 7 7 8 7 6 6 5 5 5 5 2 1 1 2 3 4 5 5 6 7 8 8 8 10 10 11 11 11 11 11 11 12 12 13 15 15 13 14 15 15 15 15 17 16 17 18 20 28 33 29 30 32 32 34 33 32 33
10 3 10 14 12 6 8 12 14 13 13 15 14 12 12 11 11 13 15 11 10 16 13 10 6 6 11 9 9 11 10 7 8 8 7 6 6 6 5 3 1 0 0 2 3 3 4 4 6 6 7 8 8 9 10 11 11 11 11 11 11 12 12 13 13 14 14 13 14 15 15 17 16 16 15 18 20 21 27 32 31 31 34 37 36 34 35
6 7 7 7 6 7 7 7 8 11 12 13 11 10 12 14 15 11 12 13 10 9 12 12 10 6 9 11 8 9 9 9 10 8 7 6 6 5 4 2 2 0 0 1 2 3 3 4 5 6 7 7 8 9 9 10 10 10 10 11 10 10 11 13 13 12 13 13 15 14 14 14 13 14 13 15 15 17 18 19 25 31 37 38 37 34 37
7 11 13 7 5 4 9 15 10 11 13 13 14 13 13 10 13 10 5 4 5 7 9 10 10 9 7 8 10 8 12 9 7 6 6 6 6 4 4 3 2 0 0 1 2 3 4 5 5 6 6 7 8 8 9 9 10 10 10 10 9 11 16 14 10 11 11 12 13 13 13 14 14 14 14 14 14 15 16 16 16 16 15 21 28 32 30
11 12 16 14 13 14 11 11 11 12 13 13 10 11 9 11 10 10 9 8 7 6 6 8 13 12 11 8 11 10 9 10 9 7 7 6 5 5 4 3 2 1 0 0 1 2 3 4 4 5 6 7 8 8 9 9 9 9 10 9 9 9 9 10 10 9 10 10 11 11 14 13 12 13 13 13 15 14 14 14 14 15 15 16 13 18 34
11 11 9 9 10 11 9 5 7 9 8 5 9 11 13 13 10 11 11 10 10 10 9 6 5 8 12 10 10 11 10 9 9 9 8 6 6 5 4 3 2 1 1 0 1 2 3 4 5 7 8 8 8 9 9 8 7 8 8 9 8 9 9 9 9 8 9 10 10 13 15 13 12 12 12 12 13 12 13 12 15 13 13 15 16 16 26
10 10 7 7 10 11 12 9 11 11 12 12 13 11 14 16 12 10 10 10 10 11 9 9 10 9 9 10 9 11 13 12 10 8 8 7 5 5 4 3 3 2 1 1 2 2 3 4 4 5 6 8 8 8 8 7 7 7 7 8 7 8 8 10 8 9 10 10 12 14 12 12 11 11 11 12 13 13 13 13 16 15 15 14 17 13 19
12 9 8 8 11 12 14 12 11 12 13 11 13 13 8 11 15 13 10 9 7 8 10 11 10 10 9 10 8 6 7 9 9 9 8 7 5 5 3 3 5 2 1 1 2 2 3 4 3 4 5 7 7 7 7 7 7 8 7 8 7 12 17 18 13 10 8 10 11 11 12 12 11 13 14 13 13 13 13 12 12 14 14 12 12 14 15
13 10 10 9 11 13 12 10 11 11 11 11 11 14 15 13 11 13 11 12 13 12 12 11 12 12 10 9 9 9 10 10 10 9 8 7 6 5 4 2 2 2 2 1 2 2 1 2 4 5 5 5 6 5 6 7 6 7 7 7 8 7 10 17 10 11 10 10 9 10 11 11 14 13 12 13 13 12 13 13 12 14 11 12 16 15 14
15 11 9 11 11 13 11 11 14 12 13 14 15 14 13 13 14 14 15 13 11 9 12 12 10 10 11 11 11 10 10 10 9 8 8 7 6 5 4 2 3 2 2 3 2 2 1 2 4 4 5 5 5 4 5 5 5 6 6 6 6 7 7 10 12 9 8 9 10 11 10 11 11 12 14 13 12 12 11 12 12 12 12 12 14 15 18
20 19 20 21 19 18 19 16 12 13 11 11 11 12 12 11 9 8 10 10 12 13 13 13 12 12 12 12 12 12 12 12 9 8 8 7 6 5 4 2 2 2 2 1 1 1 1 2 3 4 4 4 4 4 4 5 5 5 5 6 7 6 7 7 9 8 8 10 9 10 9 10 10 11 11 12 12 11 12 12 12 12 12 11 11 13 21
17 15 14 14 13 11 10 13 12 13 14 13 8 7 10 9 9 10 11 14 16 15 11 13 13 13 13 12 13 12 13 12 12 12 10 8 7 6 4 3 2 3 2 2 3 0 1 2 3 2 3 3 3 4 5 5 4 5 5 6 6 5 6 7 7 7 8 8 8 9 10 10 10 10 11 10 10 11 11 11 11 12 11 12 13 11 15
14 12 10 12 14 14 15 16 15 17 16 16 16 14 13 12 10 10 13 12 9 12 14 14 14 13 13 13 13 13 12 9 10 10 10 8 7 6 5 5 5 5 5 3 3 1 1 2 4 5 2 2 3 4 5 4 4 5 5 5 5 6 7 6 6 5 7 7 7 8 8 9 9 9 10 10 10 11 10 10 11 11 10 11 11 12 12
15 14 12 12 11 12 12 11 12 13 13 12 12 10 10 10 13 8 9 11 12 14 15 15 14 15 15 12 10 9 8 9 10 10 9 8 7 6 6 5 4 6 5 4 3 1 1 2 3 5 2 2 3 4 5 9 4 4 4 5 5 6 6 7 7 7 7 7 7 7 9 8 7 8 9 9 10 9 9 9 10 11 10 10 11 11 12
15 14 13 12 12 13 13 12 12 13 12 9 7 8 13 13 11 12 11 12 12 13 14 14 14 13 11 10 9 10 9 7 9 9 9 9 8 8 5 7 6 5 5 4 2 1 1 1 2 2 1 1 3 3 5 9 7 5 5 5 4 5 7 6 7 8 7 7 8 7 7 7 8 8 9 8 9 9 10 10 10 10 10 11 10 11 11
12 10 10 10 11 12 9 7 9 10 13 15 11 8 7 11 12 13 12 12 12 13 14 13 13 14 13 13 11 9 9 8 9 10 9 8 6 8 7 7 7 6 3 2 3 1 1 1 1 1 1 2 3 3 4 7 7 4 3 2 3 4 4 6 6 7 7 7 6 7 7 7 7 8 8 8 8 8 10 11 10 10 10 11 10 10 10
13 13 12 11 10 10 10 11 10 11 10 11 15 13 12 14 13 13 12 13 11 12 15 15 16 14 13 13 13 12 10 9 9 9 9 8 6 5 2 1 3 3 2 3 2 1 1 1 1 0 1 2 2 2 3 6 5 4 3 3 3 4 4 5 4 5 6 6 7 7 7 7 7 7 7 7 8 8 7 7 9 8 7 9 9 9 10
13 12 10 11 11 11 12 11 10 7 8 7 8 11 13 15 14 14 14 15 12 12 14 15 14 13 14 15 14 12 10 8 8 8 8 8 6 7 7 7 4 4 3 2 2 1 2 2 1 1 0 1 2 3 3 5 3 3 3 3 2 3 4 4 4 5 6 6 7 7 7 7 7 8 7 7 8 8 8 7 7 8 9 7 7 9 8
11 12 12 11 11 11 9 10 11 10 6 6 9 11 11 13 15 16 14 14 13 12 12 9 11 15 13 11 11 12 10 9 9 9 9 9 9 8 6 5 3 3 5 4 2 2 1 0 1 2 0 1 1 5 6 3 2 2 2 2 2 2 3 3 4 4 5 5 4 5 6 6 6 7 7 7 6 7 7 7 7 7 8 8 8 8 8
13 14 13 12 11 11 13 12 12 12 10 7 8 10 12 11 12 13 14 14 14 13 12 11 11 13 14 14 14 13 9 8 8 8 4 1 1 2 4 5 5 4 7 4 3 1 1 1 2 1 2 1 2 5 5 2 2 2 2 2 3 2 3 3 3 3 4 4 5 5 5 6 6 6 7 7 7 7 7 7 6 7 6 7 7 8 8
13 12 13 13 12 12 12 12 12 12 13 9 7 9 11 11 12 16 16 15 14 13 15 13 13 13 13 13 13 11 9 9 8 7 6 3 0 0 2 5 5 5 7 4 2 2 1 1 2 1 2 3 3 4 2 2 2 3 2 2 2 2 2 2 4 3 4 4 4 4 5 6 5 6 6 7 7 7 7 6 6 6 6 6 6 6 7
13 13 13 14 14 13 12 12 14 13 11 11 10 9 9 11 11 11 14 15 15 13 12 13 13 13 12 11 10 10 10 9 9 10 10 6 5 6 4 5 6 5 5 5 2 2 1 1 3 3 2 3 3 3 1 1 2 2 3 2 2 2 2 2 3 3 3 3 4 4 5 3 4 4 5 6 6 6 6 7 7 7 7 7 7 6 6
11 11 14 15 14 11 10 11 12 14 15 14 12 9 7 8 10 10 10 13 14 12 11 12 13 12 12 11 9 10 8 6 5 2 0 3 6 6 8 6 6 5 6 6 2 2 1 3 3 2 2 3 3 1 0 1 1 2 2 3 2 3 2 2 1 2 3 3 4 3 3 3 3 4 5 4 5 6 5 7 7 6 5 6 6 6 6
13 12 12 13 12 13 15 13 13 15 14 13 13 10 7 8 9 9 8 9 10 11 9 9 9 9 9 12 14 13 10 7 3 1 1 2 4 7 9 8 6 7 5 4 3 2 1 1 2 1 1 2 3 1 0 1 1 2 1 1 1 2 2 2 2 2 2 3 5 5 5 5 4 4 5 4 5 5 5 6 5 5 6 7 6 7 7
14 14 12 14 16 14 15 15 14 13 12 11 11 11 10 10 10 10 9 10 10 10 10 8 8 8 8 7 4 5 10 14 11 3 2 4 4 6 6 6 5 6 6 4 4 3 4 3 3 2 1 2 1 0 0 1 1 2 2 1 1 1 1 2 3 3 3 2 3 3 4 4 4 4 3 4 4 4 5 5 5 6 5 5 6 6 7
12 14 13 13 15 15 14 13 12 11 9 10 12 11 11 12 12 11 10 11 12 10 9 9 9 8 6 6 5 6 3 2 3 7 7 6 6 6 5 6 8 7 5 3 3 1 1 2 2 3 2 2 1 0 1 1 2 3 2 1 1 1 1 2 3 3 3 3 3 3 3 4 4 4 5 5 5 4 5 5 5 4 5 5 5 6 5
12 14 12 11 11 11 12 11 9 9 11 11 11 11 12 13 13 9 9 9 9 10 9 8 8 7 6 5 5 4 3 4 5 8 9 7 6 5 5 5 4 6 5 4 2 1 3 3 3 2 2 1 0 0 1 2 2 2 2 3 2 1 1 3 2 4 2 4 3 3 3 4 5 4 5 4 4 4 4 4 4 6 9 7 6 5 5
10 10 9 8 8 7 6 6 9 11 11 11 11 12 11 10 11 12 10 11 11 11 10 8 6 4 4 5 5 4 5 5 7 7 8 6 5 5 5 4 4 4 4 3 3 2 2 2 2 2 2 2 1 1 1 2 2 2 3 2 2 2 2 3 2 1 2 4 3 4 5 4 4 4 4 4 4 4 5 5 5 4 4 5 5 5 5
10 9 9 9 9 9 9 10 10 8 9 10 11 11 9 10 12 11 9 7 10 11 12 13 9 3 4 6 5 5 4 5 6 6 6 6 5 5 5 5 5 3 3 2 2 2 2 2 3 3 3 2 2 1 3 4 3 3 3 4 3 2 3 4 4 2 2 3 4 5 5 5 5 5 5 5 4 4 4 4 4 5 5 5 5 5 5
Wind_Direction
248 254 264 266 261 252 261 255 208 204 205 211 210 222 232 194 206 242 258 228 220 248 246 237 213 213 209 184 188 186 174 156 129 119 83 34 320 282 60 2 346 334 334 325 322 322 323 324 323 321 322 323 324 320 317 317 317 317 317 316 314 314 313 309 309 309 310 316 312 312 310 311 309 306 306 300 299 298 295 292 288 286 285 284 282 279 273
259 258 256 258 254 264 267 255 220 223 219 217 220 230 233 223 238 246 260 267 263 259 246 240 206 197 175 181 162 139 137 153 155 146 152 236 245 123 37 350 332 327 320 319 318 323 324 325 323 324 327 327 323 322 320 320 320 319 322 317 317 313 309 307 305 311 310 303 299 298 306 302 305 308 302 300 296 295 293 292 290 288 286 283 279 277 279
262 264 251 246 246 251 262 260 232 228 234 233 227 234 243 236 247 251 253 260 268 265 252 251 217 159 141 135 158 170 167 152 158 154 184 217 133 99 21 335 322 319 316 318 321 321 321 320 323 327 325 324 320 316 318 319 319 319 320 315 310 309 307 310 315 310 311 313 307 312 315 314 308 303 299 296 297 295 294 292 291 290 287 286 284 282 279
269 291 209 238 251 261 261 268 246 228 228 237 234 225 230 218 233 242 254 257 255 260 45 211 158 153 157 171 172 164 162 162 150 163 192 147 123 67 333 313 316 321 324 322 322 317 317 322 329 332 327 321 320 319 320 321 319 320 318 315 311 307 304 304 308 314 312 311 307 302 306 301 301 299 295 293 291 292 292 291 289 286 283 280 279 277 274
251 48 91 73 56 301 279 253 243 219 223 230 239 245 239 229 227 240 240 238 241 253 148 149 170 165 183 170 168 158 161 170 159 173 181 146 146 158 302 317 317 315 312 312 311 315 321 334 332 328 326 320 321 322 321 320 322 319 318 315 311 308 308 310 314 313 308 304 305 307 307 305 304 300 296 294 292 291 289 289 289 286 284 281 278 277 271
328 51 113 148 85 277 252 36 167 185 213 217 227 237 238 231 204 228 231 245 256 239 186 185 187 179 185 171 183 161 157 161 172 161 141 140 141 158 257 290 293 299 302 306 313 322 330 328 327 320 320 318 315 319 317 316 318 315 316 314 313 309 309 306 303 309 310 312 308 305 306 306 305 300 296 290 288 284 282 281 280 281 279 276 274 272 272
178 133 102 70 223 249 29 344 27 188 203 211 215 234 242 239 229 236 249 253 249 245 216 192 183 179 144 134 142 152 161 150 161 158 154 146 141 152 347 303 295 297 307 317 326 336 335 329 323 323 321 324 322 320 320 316 315 316 315 313 312 310 308 311 315 315 312 305 300 301 300 296 299 299 297 297 291 285 282 278 277 276 274 272 268 266 271
54 130 195 164 239 292 301 186 165 151 180 207 221 257 254 241 231 229 238 247 248 249 214 152 145 136 136 119 138 169 174 162 150 146 155 160 157 146 215 242 287 315 327 331 334 327 323 322 324 326 323 328 326 318 317 313 313 315 314 313 312 315 314 315 314 312 308 309 312 309 303 299 296 296 291 286 287 282 277 274 271 270 270 267 262 257 261
208 197 190 235 324 322 290 275 183 155 187 174 178 232 264 227 207 226 234 243 245 237 132 135 124 121 115 116 15 331 148 140 144 138 145 151 152 162 190 180 256 325 342 338 330 324 324 327 324 326 328 329 323 319 318 318 317 316 317 315 317 319 315 310 306 308 313 310 305 305 304 301 295 292 295 293 286 276 271 271 268 268 268 264 267 267 270
192 201 245 282 276 261 274 94 253 199 181 157 168 238 277 198 189 214 223 231 227 158 136 137 140 134 114 207 226 191 172 144 138 127 124 121 133 143 148 142 15 22 348 332 336 335 325 321 321 326 332 328 322 318 317 318 320 320 320 319 319 317 313 311 315 315 310 306 302 301 297 296 293 291 288 287 279 272 265 265 267 265 263 264 262 260 261
135 205 217 228 235 249 111 223 133 152 109 117 98 74 272 196 189 209 211 221 185 155 154 157 146 139 192 228 187 181 176 165 146 130 133 138 143 138 131 117 64 358 354 349 338 332 322 319 327 335 331 326 322 319 319 320 321 319 321 321 322 319 315 315 310 306 305 304 300 297 296 294 295 294 292 285 281 274 265 259 260 261 258 260 261 259 256
215 202 207 238 212 257 205 169 106 125 130 97 85 331 276 308 177 209 189 196 164 165 160 157 167 167 207 225 210 169 169 156 148 141 149 143 131 118 114 108 103 65 15 360 343 333 324 319 330 332 330 324 318 316 316 319 319 320 322 323 317 313 309 308 309 308 308 303 294 290 285 289 294 296 293 285 276 265 262 253 257 260 260 259 260 261 264
224 211 242 301 274 254 159 158 153 134 120 109 108 241 213 180 165 189 159 184 161 154 160 165 179 222 201 147 133 144 144 126 116 111 129 131 135 131 116 87 59 46 31 16 332 319 317 323 332 332 330 324 320 320 319 319 322 322 321 317 315 314 312 309 306 305 307 303 303 306 305 304 304 299 298 301 290 270 262 261 251 255 258 259 260 262 261
223 212 234 241 280 260 149 173 151 148 103 216 232 239 154 149 172 164 182 157 165 161 170 186 188 130 123 117 126 137 147 151 158 147 133 119 102 104 103 79 70 54 21 352 327 321 322 326 330 329 327 322 319 321 323 321 322 322 320 320 318 315 311 309 309 310 313 313 311 311 312 318 322 313 304 302 303 294 269 255 252 253 255 256 260 262 261
76 181 235 317 272 257 146 143 146 177 173 243 123 121 46 154 166 161 174 157 165 162 165 164 125 134 128 139 144 148 149 143 150 146 139 134 133 119 98 64 56 62 15 348 329 318 324 325 329 322 319 316 317 319 318 319 321 323 323 322 321 316 312 310 314 314 315 318 319 319 322 324 322 314 313 312 308 307 289 260 253 254 255 255 257 259 260
170 184 194 210 224 134 154 149 182 189 209 145 147 123 157 117 167 162 143 165 164 164 156 151 144 146 141 138 143 140 145 136 127 128 124 116 110 112 100 104 101 70 17 329 317 316 320 322 319 315 316 318 321 321 320 322 324 325 323 323 320 317 315 315 316 318 319 320 322 324 326 327 326 319 320 319 317 310 306 275 265 260 254 249 251 250 253
166 197 215 213 119 163 179 184 165 185 168 137 165 144 157 161 209 187 152 164 166 161 153 152 149 152 168 161 161 156 166 151 152 148 144 136 134 135 131 103 88 68 32 337 329 314 317 315 309 313 321 323 323 325 326 330 329 329 327 325 324 321 321 319 320 321 322 322 327 330 332 332 327 327 325 324 321 321 322 319 285 266 259 249 253 254 258
244 298 276 100 194 170 189 213 129 156 143 166 152 146 150 188 167 168 170 165 166 161 152 138 174 168 169 150 165 148 151 150 141 124 118 118 120 121 110 100 78 68 39 356 338 315 314 314 312 323 327 331 329 326 327 330 329 329 326 326 325 325 323 322 322 326 326 327 331 334 335 334 328 328 326 325 324 322 330 335 336 329 319 296 252 244 248
117 253 225 193 192 181 191 197 167 145 166 177 168 160 166 174 163 173 157 162 166 163 157 164 171 176 161 165 165 154 149 151 151 149 145 147 147 140 119 115 98 56 35 360 336 321 309 315 323 329 329 329 324 323 329 330 331 329 327 326 324 324 325 324 326 331 333 333 333 335 342 339 332 334 330 328 327 329 334 337 335 331 329 328 315 272 237
196 238 74 236 170 189 191 192 184 172 188 179 187 172 172 165 172 168 168 152 154 143 165 170 167 171 168 163 169 164 167 162 156 151 153 154 134 114 118 119 97 74 43 358 324 316 312 318 330 329 328 330 330 330 331 335 331 329 327 329 327 325 326 327 329 333 334 336 337 336 341 343 339 336 335 333 332 334 337 337 335 333 334 331 334 334 326
234 266 249 142 146 218 213 204 207 191 181 174 171 154 142 145 150 157 152 165 162 168 179 165 158 159 184 177 170 168 161 154 156 161 154 144 131 129 123 99 86 72 42 342 314 308 310 320 326 328 329 329 334 339 339 337 335 332 330 327 326 325 328 331 334 336 338 340 339 339 339 343 340 337 334 334 332 328 331 332 336 334 328 330 336 334 325
222 219 214 137 158 219 207 203 201 198 184 166 160 144 147 158 157 156 155 152 155 177 165 162 162 170 178 173 160 167 167 167 157 152 144 134 127 130 118 102 83 68 30 312 304 307 312 324 325 327 329 332 340 342 341 338 337 336 332 330 330 333 334 335 337 339 343 342 343 340 342 345 336 333 339 343 337 336 335 340 345 349 349 342 343 344 340
222 222 193 181 208 225 187 185 196 189 168 158 159 169 167 174 169 164 155 148 142 161 181 174 165 170 169 173 157 153 156 159 154 148 138 134 133 130 113 86 63 50 347 313 299 312 318 325 326 328 329 336 342 345 344 339 338 335 332 332 331 333 337 339 339 340 342 341 337 330 342 344 339 337 339 331 340 346 346 346 351 355 356 354 357 1 359
337 167 170 180 189 204 172 178 186 183 171 167 176 179 173 171 168 168 165 167 167 180 169 183 184 165 161 159 156 154 141 139 136 131 128 135 137 124 103 97 101 43 312 320 317 313 319 323 327 327 329 338 345 343 342 338 338 334 334 334 334 334 335 335 340 344 343 342 333 335 342 344 340 345 336 335 336 341 348 351 352 356 360 1 1 4 1
218 174 167 183 188 168 155 171 181 179 175 173 175 176 175 169 171 168 168 177 179 165 168 179 175 159 151 155 150 152 150 147 141 138 134 137 130 115 108 107 130 186 269 291 295 298 312 324 328 330 331 339 343 344 341 339 338 335 333 335 332 332 335 339 342 344 345 344 339 342 346 342 339 341 337 347 345 340 336 342 350 0 2 1 2 4 2
142 156 152 153 153 141 142 135 179 177 177 178 172 178 174 169 166 168 178 172 172 175 169 165 157 159 146 145 140 133 128 139 142 133 132 132 117 108 115 137 157 176 259 271 287 297 323 333 329 331 337 339 344 341 339 337 338 332 330 332 332 329 338 344 346 348 349 348 345 344 343 337 339 334 343 346 349 338 341 338 348 353 357 357 357 3 3
139 144 120 97 137 166 166 167 190 177 176 179 178 173 168 162 160 158 136 123 143 159 163 162 149 137 122 126 128 137 139 137 126 131 136 132 132 139 143 144 136 175 240 275 292 324 343 335 335 337 336 337 339 339 337 337 336 333 332 334 334 331 338 347 353 351 346 346 346 345 346 341 341 337 338 342 342 345 347 342 343 349 334 348 349 3 7
160 163 151 166 185 185 192 191 168 170 174 174 162 143 138 125 126 128 135 129 122 113 105 129 135 137 133 140 134 132 130 139 145 145 136 136 134 129 136 138 152 175 228 238 335 343 339 335 334 337 336 340 340 336 336 339 337 337 336 336 337 336 337 343 354 350 350 349 347 351 350 343 340 331 341 344 348 345 342 341 348 342 339 335 323 343 4
166 169 178 179 167 166 154 118 125 141 130 107 122 126 130 136 153 158 168 166 150 134 131 130 133 143 143 148 145 144 148 147 147 150 143 137 133 136 140 145 166 188 185 142 4 343 344 345 347 346 335 336 334 334 335 340 341 339 339 337 338 336 339 344 351 348 349 347 350 357 354 346 337 338 341 346 344 344 344 346 352 344 339 325 338 343 9
162 173 158 134 141 132 131 151 158 150 144 142 138 153 158 148 155 179 168 157 158 161 155 140 138 142 145 146 156 155 159 163 152 136 133 135 138 144 147 143 133 139 128 98 5 347 353 347 343 337 324 328 328 329 332 341 339 337 334 335 337 336 338 348 350 352 353 351 349 351 353 348 345 340 340 346 350 348 348 346 355 354 350 345 354 353 9
173 166 147 136 145 155 161 168 159 156 152 157 153 151 167 166 168 168 172 160 161 152 151 156 152 141 152 156 148 135 125 126 129 131 132 137 142 149 150 160 147 172 160 305 313 329 335 329 321 307 308 317 321 327 338 343 342 338 344 346 347 345 351 1 4 1 351 353 351 355 356 1 356 352 351 349 349 351 346 343 347 356 355 342 347 353 4
160 159 149 158 161 173 176 155 151 161 162 156 149 165 169 167 173 179 169 175 183 162 152 151 157 163 154 139 134 130 129 127 126 131 137 141 147 152 152 149 146 138 182 232 261 277 288 317 327 310 313 317 322 331 343 345 343 348 349 342 341 339 342 1 3 2 358 356 355 358 358 1 4 1 349 350 347 344 344 348 348 352 341 357 5 357 350
157 157 174 177 182 181 172 173 163 169 163 171 182 176 177 186 182 179 178 166 142 154 161 163 156 145 142 139 135 133 130 128 130 138 147 154 160 156 154 163 175 178 198 218 219 232 228 306 295 299 308 316 322 333 347 343 344 344 339 340 335 335 345 354 1 360 357 2 3 0 357 2 2 6 3 352 344 343 350 354 349 350 352 360 6 358 3
176 183 189 189 182 181 181 183 172 162 178 182 179 179 182 189 180 157 151 156 157 158 167 163 153 145 142 142 141 137 135 131 141 164 174 167 166 171 190 169 177 187 217 225 199 198 256 267 266 283 300 318 324 346 341 348 350 348 340 341 342 343 349 347 352 357 3 4 359 355 358 0 6 4 360 354 348 347 353 351 352 352 348 347 348 357 0
183 189 182 181 188 187 168 158 166 170 169 179 192 194 190 176 167 163 156 158 169 172 153 140 142 144 143 142 146 152 160 166 166 165 170 169 168 173 169 140 111 105 112 146 168 253 271 264 268 276 325 318 340 350 346 346 356 352 347 347 341 342 339 345 355 359 2 353 351 358 2 4 3 359 357 358 351 350 348 345 351 353 349 350 342 337 353
184 185 180 181 184 180 173 173 174 174 175 180 184 182 180 179 163 152 163 166 137 132 139 141 141 141 145 151 156 165 171 166 158 156 157 161 162 152 145 138 127 128 137 165 202 217 292 283 312 12 358 337 359 350 345 350 353 4 352 352 345 344 345 351 351 351 358 356 0 359 360 357 354 354 359 359 1 360 349 347 354 353 351 348 340 345 340
186 184 180 176 180 177 175 172 171 168 176 179 176 173 169 165 169 153 129 129 140 143 143 141 141 152 162 165 157 152 152 156 155 155 155 149 144 149 150 147 150 150 153 163 220 213 291 283 340 19 355 1 353 349 335 354 0 10 4 356 348 356 355 357 357 359 358 356 358 354 353 354 2 3 2 6 1 352 350 348 354 352 349 343 345 345 347
189 185 174 172 174 174 177 176 170 170 169 168 169 171 169 158 151 145 144 140 142 143 145 149 150 144 135 128 138 150 151 148 142 140 142 149 156 143 152 151 167 163 154 191 197 178 264 285 21 8 338 6 356 338 332 354 6 16 13 3 357 353 1 2 357 357 358 354 353 354 354 357 358 1 3 4 5 359 356 354 353 352 349 350 348 351 349
184 179 175 169 165 170 164 152 155 164 165 169 167 147 143 141 137 132 136 139 140 140 137 133 129 132 140 144 146 149 152 151 146 143 146 153 163 150 171 182 181 181 180 187 150 183 247 249 64 331 348 8 356 329 325 344 0 18 6 5 358 6 6 6 1 352 352 347 348 356 356 356 357 2 358 1 357 360 3 2 357 350 358 352 351 350 353
177 177 174 156 157 156 150 156 162 168 177 165 153 151 146 137 141 134 131 132 144 145 139 138 141 143 150 151 149 155 161 154 150 146 145 145 136 126 121 245 246 245 228 159 147 187 206 129 100 302 13 359 341 324 336 342 354 358 3 0 3 13 17 9 3 358 353 352 353 355 355 357 353 353 349 349 358 1 353 354 360 350 349 347 350 350 350
173 167 160 157 156 154 154 152 154 152 144 142 136 137 146 143 139 136 145 146 148 144 145 149 144 147 156 158 156 149 146 147 145 147 141 126 128 157 163 203 201 159 175 145 158 198 176 139 173 119 86 340 328 343 340 335 352 343 352 345 360 18 21 14 13 3 355 351 353 354 351 350 348 349 348 352 356 357 360 359 2 357 358 345 345 344 346
168 157 155 149 150 151 143 133 126 114 92 104 124 134 137 143 147 148 143 135 137 141 142 146 150 149 146 136 128 124 132 142 136 139 160 160 164 162 172 216 180 170 162 153 163 150 160 199 151 124 141 13 326 339 343 346 349 342 340 332 354 19 26 16 13 359 347 344 342 344 346 349 350 346 346 348 346 354 354 353 356 354 352 351 350 344 349
157 158 158 149 143 138 138 140 138 128 116 105 120 126 126 122 115 119 128 135 137 140 137 131 126 125 129 134 134 137 141 144 147 153 161 233 246 205 175 175 162 183 166 149 163 172 185 178 159 153 56 38 3 346 347 344 344 340 336 340 354 10 21 21 6 355 349 344 349 350 348 349 352 349 348 344 345 347 349 351 347 348 351 345 338 345 345
157 151 146 142 141 139 133 123 119 121 119 116 111 116 118 121 134 138 140 141 141 144 142 140 142 143 142 142 139 140 147 154 152 155 146 157 126 242 147 143 157 165 165 157 160 174 182 165 161 110 82 34 21 4 356 344 335 333 324 345 353 3 2 13 4 1 351 351 342 341 346 343 346 345 341 342 339 340 341 336 331 341 340 336 335 340 341
152 148 144 139 137 135 135 139 140 135 124 117 109 106 114 124 128 135 139 141 144 143 143 144 147 147 148 150 150 153 155 155 154 151 143 153 177 216 187 152 149 160 160 164 172 168 179 172 141 101 76 43 31 28 28 337 329 323 326 333 348 357 358 5 3 356 346 340 331 336 335 339 339 334 334 331 333 333 334 334 334 336 336 341 343 345 346
119 119 123 125 130 131 126 117 111 114 118 114 101 87 98 118 127 130 138 140 141 145 147 147 145 146 144 134 115 112 112 118 131 134 136 163 173 179 152 151 155 158 165 164 168 177 183 175 143 120 78 50 46 57 19 319 307 305 307 320 332 351 354 353 356 346 336 329 325 321 328 327 330 330 326 320 329 328 327 333 331 330 334 332 336 338 338
119 117 121 117 108 111 115 116 119 118 118 120 124 129 127 125 123 124 122 122 123 124 127 126 128 134 137 139 141 135 130 123 105 74 100 93 101 118 129 137 148 155 162 165 177 159 154 198 201 180 98 60 60 65 314 287 270 278 277 293 305 331 337 333 334 331 321 314 313 322 329 325 326 324 322 326 325 324 327 328 329 331 333 330 330 336 338
127 123 124 125 124 125 122 125 129 134 139 138 135 128 131 125 118 113 115 115 115 112 111 113 115 117 122 120 108 122 146 147 145 177 156 127 119 118 133 152 154 156 159 171 174 186 201 211 208 174 156 88 86 52 314 270 264 265 264 268 284 304 301 316 317 316 317 309 317 321 315 323 321 321 319 317 313 319 317 323 322 327 328 333 335 336 335
110 115 117 118 124 130 132 133 132 129 125 127 127 130 130 125 120 119 120 119 117 114 113 114 114 111 103 99 106 112 85 27 122 161 163 149 142 143 143 146 151 156 155 150 151 152 185 219 211 204 172 113 105 160 253 268 263 271 268 276 270 253 252 273 274 282 291 300 304 302 302 302 301 308 309 310 311 312 312 314 316 318 321 328 326 328 329
115 116 120 131 135 140 142 138 132 131 132 137 134 135 139 135 128 136 135 132 125 117 113 112 113 111 110 108 100 82 77 87 88 109 128 137 137 135 139 144 150 157 151 146 149 184 216 224 214 205 162 136 156 217 256 269 260 264 269 277 275 279 263 273 295 303 304 305 299 297 298 295 295 297 298 301 304 303 304 305 307 312 323 325 317 317 318
122 117 118 114 108 97 77 87 120 130 136 133 134 138 143 138 133 136 142 139 134 127 124 119 110 110 113 110 103 98 97 101 108 113 121 131 132 135 137 148 153 154 151 146 164 181 188 202 199 201 170 168 177 214 232 251 258 271 273 273 283 278 281 285 258 263 269 274 279 286 286 292 293 291 283 286 292 298 301 308 308 310 309 311 314 311 309
91 96 98 98 94 89 90 97 103 111 118 130 138 143 138 134 133 130 131 141 139 137 140 134 130 133 129 124 119 116 118 115 122 120 120 124 135 140 147 145 150 155 154 167 185 200 199 194 206 197 190 193 186 213 244 257 262 261 263 272 273 275 280 278 272 268 260 266 274 279 283 284 284 285 288 286 280 286 293 295 295 298 299 301 300 306 304